Time,TemperatureF,DewpointF,PressureIn,WindDirection,WindDirectionDegrees,WindSpeedMPH,WindSpeedGustMPH,Humidity,HourlyPrecipIn,Conditions,Clouds,dailyrainin,SoftwareType,DateUTC
2013-07-12 00:01:00,63.5,57.9,30.05,NNW,328,3.0,5.0,82,0.00,,,0.00,Wunderground v.1.15,2013-07-12 04:01:00,
2013-07-12 00:02:00,63.4,57.8,30.05,NNW,344,3.0,5.0,82,0.00,,,0.00,Wunderground v.1.15,2013-07-12 04:02:00,
2013-07-12 00:05:00,63.3,57.4,30.05,NNW,328,3.0,5.0,81,0.00,,,0.00,Wunderground v.1.15,2013-07-12 04:05:00,
2013-07-12 00:09:00,63.3,57.7,30.05,NNW,328,3.0,5.0,82,0.00,,,0.00,Wunderground v.1.15,2013-07-12 04:09:00,
2013-07-12 00:15:00,63.1,57.5,30.05,NNW,335,3.0,5.0,82,0.00,,,0.00,Wunderground v.1.15,2013-07-12 04:15:00,
2013-07-12 00:19:00,63.0,57.4,30.05,NNW,328,3.0,5.0,82,0.00,,,0.00,Wunderground v.1.15,2013-07-12 04:19:00,
2013-07-12 00:25:00,62.9,57.3,30.06,NNW,343,3.0,5.0,82,0.00,,,0.00,Wunderground v.1.15,2013-07-12 04:25:00,
2013-07-12 00:31:00,62.4,57.2,30.06,NNW,335,3.0,3.0,83,0.00,,,0.00,Wunderground v.1.15,2013-07-12 04:31:00,
2013-07-12 00:37:00,62.2,57.3,30.06,NNW,331,3.0,5.0,84,0.00,,,0.00,Wunderground v.1.15,2013-07-12 04:37:00,
2013-07-12 00:43:00,62.1,57.2,30.06,NNW,340,3.0,5.0,84,0.00,,,0.00,Wunderground v.1.15,2013-07-12 04:43:00,
2013-07-12 00:49:00,62.2,57.0,30.06,NNW,328,4.0,5.0,83,0.00,,,0.00,Wunderground v.1.15,2013-07-12 04:49:00,
2013-07-12 00:55:00,62.2,57.0,30.06,North,350,4.0,5.0,83,0.00,,,0.00,Wunderground v.1.15,2013-07-12 04:55:00,
2013-07-12 01:01:00,62.1,56.9,30.06,NNW,330,3.0,5.0,83,0.00,,,0.00,Wunderground v.1.15,2013-07-12 05:01:00,
2013-07-12 01:07:00,61.9,57.0,30.06,NNW,327,3.0,5.0,84,0.00,,,0.00,Wunderground v.1.15,2013-07-12 05:07:00,
2013-07-12 01:13:00,61.7,56.8,30.06,NNW,327,3.0,5.0,84,0.00,,,0.00,Wunderground v.1.15,2013-07-12 05:13:00,
2013-07-12 01:19:00,61.5,56.6,30.06,North,360,4.0,5.0,84,0.00,,,0.00,Wunderground v.1.15,2013-07-12 05:19:00,
2013-07-12 01:25:00,61.3,56.8,30.06,NNW,335,3.0,5.0,85,0.00,,,0.00,Wunderground v.1.15,2013-07-12 05:25:00,
2013-07-12 01:31:00,61.2,57.0,30.06,NNW,335,3.0,3.0,86,0.00,,,0.00,Wunderground v.1.15,2013-07-12 05:31:00,
2013-07-12 01:37:00,61.0,56.8,30.06,NNW,337,3.0,5.0,86,0.00,,,0.00,Wunderground v.1.15,2013-07-12 05:37:00,
2013-07-12 01:43:00,60.9,56.7,30.06,NNW,327,3.0,5.0,86,0.00,,,0.00,Wunderground v.1.15,2013-07-12 05:43:00,
2013-07-12 01:49:00,60.9,56.7,30.06,NW,317,2.0,5.0,86,0.00,,,0.00,Wunderground v.1.15,2013-07-12 05:49:00,
2013-07-12 01:54:00,60.8,56.6,30.06,NNW,334,2.0,5.0,86,0.00,,,0.00,Wunderground v.1.15,2013-07-12 05:54:00,
2013-07-12 02:01:00,60.7,56.5,30.06,NNW,335,2.0,5.0,86,0.00,,,0.00,Wunderground v.1.15,2013-07-12 06:01:00,
2013-07-12 02:07:00,60.7,56.8,30.07,NNW,330,2.0,5.0,87,0.00,,,0.00,Wunderground v.1.15,2013-07-12 06:07:00,
2013-07-12 02:13:00,60.5,56.6,30.06,NNW,334,2.0,5.0,87,0.00,,,0.00,Wunderground v.1.15,2013-07-12 06:13:00,
2013-07-12 02:19:00,60.3,56.4,30.06,NNW,330,2.0,5.0,87,0.00,,,0.00,Wunderground v.1.15,2013-07-12 06:19:00,
2013-07-12 02:25:00,60.3,56.4,30.06,NNW,340,2.0,5.0,87,0.00,,,0.00,Wunderground v.1.15,2013-07-12 06:25:00,
2013-07-12 02:31:00,60.1,56.2,30.06,NNW,330,2.0,5.0,87,0.00,,,0.00,Wunderground v.1.15,2013-07-12 06:31:00,
2013-07-12 02:37:00,59.9,56.6,30.06,NNW,335,2.0,5.0,89,0.00,,,0.00,Wunderground v.1.15,2013-07-12 06:37:00,
2013-07-12 02:42:00,59.5,56.3,30.07,NNW,345,2.0,5.0,89,0.00,,,0.00,Wunderground v.1.15,2013-07-12 06:42:00,
2013-07-12 02:48:00,59.4,56.5,30.07,NW,321,1.0,5.0,90,0.00,,,0.00,Wunderground v.1.15,2013-07-12 06:48:00,
2013-07-12 02:54:00,59.5,56.3,30.07,NNW,337,2.0,5.0,89,0.00,,,0.00,Wunderground v.1.15,2013-07-12 06:54:00,
2013-07-12 03:01:00,59.5,56.3,30.07,NNW,333,2.0,2.0,89,0.00,,,0.00,Wunderground v.1.15,2013-07-12 07:01:00,
2013-07-12 03:07:00,59.4,56.2,30.07,NNW,332,1.0,5.0,89,0.00,,,0.00,Wunderground v.1.15,2013-07-12 07:07:00,
2013-07-12 03:13:00,59.3,56.1,30.07,NNW,343,1.0,5.0,89,0.00,,,0.00,Wunderground v.1.15,2013-07-12 07:13:00,
2013-07-12 03:19:00,59.1,55.9,30.07,NNW,343,0.0,5.0,89,0.00,,,0.00,Wunderground v.1.15,2013-07-12 07:19:00,
2013-07-12 03:25:00,59.1,55.9,30.07,NNW,343,0.0,5.0,89,0.00,,,0.00,Wunderground v.1.15,2013-07-12 07:25:00,
2013-07-12 03:30:00,59.1,55.9,30.07,NNW,343,0.0,5.0,89,0.00,,,0.00,Wunderground v.1.15,2013-07-12 07:30:00,
2013-07-12 03:36:00,59.1,55.9,30.07,North,355,0.0,5.0,89,0.00,,,0.00,Wunderground v.1.15,2013-07-12 07:36:00,
2013-07-12 03:42:00,59.0,55.8,30.07,NNE,26,0.0,5.0,89,0.00,,,0.00,Wunderground v.1.15,2013-07-12 07:42:00,
2013-07-12 03:48:00,59.0,55.8,30.07,North,11,0.0,5.0,89,0.00,,,0.00,Wunderground v.1.15,2013-07-12 07:48:00,
2013-07-12 03:54:00,59.1,55.5,30.07,NNE,21,0.0,5.0,88,0.00,,,0.00,Wunderground v.1.15,2013-07-12 07:54:00,
2013-07-12 04:01:00,59.2,56.0,30.07,NE,36,2.0,5.0,89,0.00,,,0.00,Wunderground v.1.15,2013-07-12 08:01:00,
2013-07-12 04:07:00,59.3,56.1,30.08,NNE,18,3.0,5.0,89,0.00,,,0.00,Wunderground v.1.15,2013-07-12 08:07:00,
2013-07-12 04:13:00,59.1,55.5,30.08,North,360,3.0,5.0,88,0.00,,,0.00,Wunderground v.1.15,2013-07-12 08:13:00,
2013-07-12 04:19:00,58.8,55.6,30.08,NNW,347,2.0,5.0,89,0.00,,,0.00,Wunderground v.1.15,2013-07-12 08:19:00,
2013-07-12 04:25:00,58.5,55.3,30.08,NNW,340,2.0,5.0,89,0.00,,,0.00,Wunderground v.1.15,2013-07-12 08:25:00,
2013-07-12 04:31:00,58.3,55.4,30.08,NNW,335,2.0,2.0,90,0.00,,,0.00,Wunderground v.1.15,2013-07-12 08:31:00,
2013-07-12 04:37:00,58.1,55.2,30.08,NNW,347,2.0,5.0,90,0.00,,,0.00,Wunderground v.1.15,2013-07-12 08:37:00,
2013-07-12 04:43:00,58.0,55.1,30.08,North,11,2.0,5.0,90,0.00,,,0.00,Wunderground v.1.15,2013-07-12 08:43:00,
2013-07-12 04:49:00,58.0,55.4,30.09,NNE,30,2.0,5.0,91,0.00,,,0.00,Wunderground v.1.15,2013-07-12 08:49:00,
2013-07-12 04:55:00,58.1,55.5,30.08,NNE,16,3.0,5.0,91,0.00,,,0.00,Wunderground v.1.15,2013-07-12 08:55:00,
2013-07-12 05:01:00,57.9,55.3,30.08,North,11,2.0,5.0,91,0.00,,,0.00,Wunderground v.1.15,2013-07-12 09:01:00,
2013-07-12 05:06:00,57.7,55.1,30.09,North,1,2.0,5.0,91,0.00,,,0.00,Wunderground v.1.15,2013-07-12 09:06:00,
2013-07-12 05:12:00,57.6,55.3,30.09,North,5,2.0,5.0,92,0.00,,,0.00,Wunderground v.1.15,2013-07-12 09:12:00,
2013-07-12 05:18:00,57.5,55.2,30.09,North,8,1.0,5.0,92,0.00,,,0.00,Wunderground v.1.15,2013-07-12 09:18:00,
2013-07-12 05:24:00,57.5,55.2,30.09,NNE,18,2.0,5.0,92,0.00,,,0.00,Wunderground v.1.15,2013-07-12 09:24:00,
2013-07-12 05:30:00,57.5,55.2,30.10,North,10,3.0,5.0,92,0.00,,,0.00,Wunderground v.1.15,2013-07-12 09:30:00,
2013-07-12 05:36:00,57.5,55.2,30.10,NNE,18,3.0,5.0,92,0.00,,,0.00,Wunderground v.1.15,2013-07-12 09:36:00,
2013-07-12 05:42:00,57.5,55.2,30.10,North,8,4.0,5.0,92,0.00,,,0.00,Wunderground v.1.15,2013-07-12 09:42:00,
2013-07-12 05:48:00,57.4,55.1,30.10,NNE,15,3.0,5.0,92,0.00,,,0.00,Wunderground v.1.15,2013-07-12 09:48:00,
2013-07-12 05:53:00,57.3,55.0,30.11,North,359,3.0,5.0,92,0.00,,,0.00,Wunderground v.1.15,2013-07-12 09:53:00,
2013-07-12 05:59:00,57.2,54.9,30.11,North,4,3.0,5.0,92,0.00,,,0.00,Wunderground v.1.15,2013-07-12 09:59:00,
2013-07-12 06:05:00,57.0,55.0,30.11,North,8,2.0,5.0,93,0.00,,,0.00,Wunderground v.1.15,2013-07-12 10:05:00,
2013-07-12 06:11:00,56.9,54.9,30.11,North,9,3.0,5.0,93,0.00,,,0.00,Wunderground v.1.15,2013-07-12 10:11:00,
2013-07-12 06:17:00,57.0,55.0,30.11,North,360,3.0,5.0,93,0.00,,,0.00,Wunderground v.1.15,2013-07-12 10:17:00,
2013-07-12 06:23:00,57.0,55.0,30.11,NNE,13,3.0,5.0,93,0.00,,,0.00,Wunderground v.1.15,2013-07-12 10:23:00,
2013-07-12 06:28:00,57.0,55.0,30.11,North,360,2.0,5.0,93,0.00,,,0.00,Wunderground v.1.15,2013-07-12 10:28:00,
2013-07-12 06:34:00,57.0,55.3,30.11,North,360,1.0,5.0,94,0.00,,,0.00,Wunderground v.1.15,2013-07-12 10:34:00,
2013-07-12 06:39:00,57.1,55.4,30.11,North,1,1.0,5.0,94,0.00,,,0.00,Wunderground v.1.15,2013-07-12 10:39:00,
2013-07-12 06:45:00,57.2,55.5,30.11,North,1,1.0,5.0,94,0.00,,,0.00,Wunderground v.1.15,2013-07-12 10:45:00,
2013-07-12 06:51:00,57.7,56.0,30.11,NNW,327,1.0,1.0,94,0.00,,,0.00,Wunderground v.1.15,2013-07-12 10:51:00,
2013-07-12 06:57:00,58.6,56.6,30.12,NNW,328,0.0,5.0,93,0.00,,,0.00,Wunderground v.1.15,2013-07-12 10:57:00,
2013-07-12 07:03:00,59.4,57.1,30.12,North,354,0.0,5.0,92,0.00,,,0.00,Wunderground v.1.15,2013-07-12 11:03:00,
2013-07-12 07:09:00,59.9,57.3,30.12,NNE,20,1.0,5.0,91,0.00,,,0.00,Wunderground v.1.15,2013-07-12 11:09:00,
2013-07-12 07:14:00,60.4,57.5,30.12,North,4,1.0,5.0,90,0.00,,,0.00,Wunderground v.1.15,2013-07-12 11:14:00,
2013-07-12 07:20:00,60.7,57.7,30.12,North,4,0.0,5.0,90,0.00,,,0.00,Wunderground v.1.15,2013-07-12 11:20:00,
2013-07-12 07:26:00,60.8,57.8,30.11,SE,131,0.0,5.0,90,0.00,,,0.00,Wunderground v.1.15,2013-07-12 11:26:00,
2013-07-12 07:32:00,60.9,57.9,30.12,NE,43,0.0,5.0,90,0.00,,,0.00,Wunderground v.1.15,2013-07-12 11:32:00,
2013-07-12 07:38:00,61.3,58.3,30.11,NE,40,1.0,5.0,90,0.00,,,0.00,Wunderground v.1.15,2013-07-12 11:38:00,
2013-07-12 07:44:00,61.5,58.2,30.12,NE,40,1.0,5.0,89,0.00,,,0.00,Wunderground v.1.15,2013-07-12 11:44:00,
2013-07-12 07:50:00,61.6,58.3,30.12,NNE,16,2.0,5.0,89,0.00,,,0.00,Wunderground v.1.15,2013-07-12 11:50:00,
2013-07-12 07:55:00,61.7,58.4,30.12,North,8,1.0,5.0,89,0.00,,,0.00,Wunderground v.1.15,2013-07-12 11:55:00,
2013-07-12 08:01:00,62.0,59.0,30.12,NNW,335,1.0,1.0,90,0.00,,,0.00,Wunderground v.1.15,2013-07-12 12:01:00,
2013-07-12 08:07:00,62.5,59.2,30.12,North,6,1.0,5.0,89,0.00,,,0.00,Wunderground v.1.15,2013-07-12 12:07:00,
2013-07-12 08:13:00,62.8,59.5,30.12,NNE,13,1.0,5.0,89,0.00,,,0.00,Wunderground v.1.15,2013-07-12 12:13:00,
2013-07-12 08:19:00,62.9,59.6,30.12,NNE,13,1.0,5.0,89,0.00,,,0.00,Wunderground v.1.15,2013-07-12 12:19:00,
2013-07-12 08:25:00,63.2,59.6,30.13,NNE,13,0.0,5.0,88,0.00,,,0.00,Wunderground v.1.15,2013-07-12 12:25:00,
2013-07-12 08:31:00,63.4,59.8,30.12,North,11,0.0,5.0,88,0.00,,,0.00,Wunderground v.1.15,2013-07-12 12:31:00,
2013-07-12 08:36:00,63.8,60.2,30.13,NNE,13,0.0,5.0,88,0.00,,,0.00,Wunderground v.1.15,2013-07-12 12:36:00,
2013-07-12 08:42:00,64.4,60.1,30.13,NE,50,0.0,5.0,86,0.00,,,0.00,Wunderground v.1.15,2013-07-12 12:42:00,
2013-07-12 08:48:00,65.0,60.4,30.13,NNE,26,0.0,5.0,85,0.00,,,0.00,Wunderground v.1.15,2013-07-12 12:48:00,
2013-07-12 08:54:00,65.6,61.0,30.13,NE,44,0.0,5.0,85,0.00,,,0.00,Wunderground v.1.15,2013-07-12 12:54:00,
2013-07-12 09:01:00,66.1,61.1,30.12,NE,44,0.0,5.0,84,0.00,,,0.00,Wunderground v.1.15,2013-07-12 13:01:00,
2013-07-12 09:07:00,67.3,61.6,30.13,NE,44,0.0,5.0,82,0.00,,,0.00,Wunderground v.1.15,2013-07-12 13:07:00,
2013-07-12 09:13:00,69.0,62.6,30.13,NE,46,0.0,5.0,80,0.00,,,0.00,Wunderground v.1.15,2013-07-12 13:13:00,
2013-07-12 09:19:00,70.7,62.8,30.13,WSW,240,0.0,5.0,76,0.00,,,0.00,Wunderground v.1.15,2013-07-12 13:19:00,
2013-07-12 09:25:00,72.0,63.6,30.13,SSE,155,0.0,5.0,75,0.00,,,0.00,Wunderground v.1.15,2013-07-12 13:25:00,
2013-07-12 09:30:00,72.8,63.2,30.13,North,356,0.0,5.0,72,0.00,,,0.00,Wunderground v.1.15,2013-07-12 13:30:00,
2013-07-12 09:36:00,72.4,62.5,30.13,NNW,327,1.0,5.0,71,0.00,,,0.00,Wunderground v.1.15,2013-07-12 13:36:00,
2013-07-12 09:42:00,72.2,62.7,30.13,NW,310,1.0,5.0,72,0.00,,,0.00,Wunderground v.1.15,2013-07-12 13:42:00,
2013-07-12 09:48:00,72.7,63.1,30.13,NNW,342,0.0,5.0,72,0.00,,,0.00,Wunderground v.1.15,2013-07-12 13:48:00,
2013-07-12 09:54:00,73.9,62.7,30.13,NNW,345,0.0,5.0,68,0.00,,,0.00,Wunderground v.1.15,2013-07-12 13:54:00,
2013-07-12 10:01:00,74.2,62.1,30.13,NE,49,1.0,5.0,66,0.00,,,0.00,Wunderground v.1.15,2013-07-12 14:01:00,
2013-07-12 10:07:00,73.9,61.4,30.13,NNE,22,1.0,5.0,65,0.00,,,0.00,Wunderground v.1.15,2013-07-12 14:07:00,
2013-07-12 10:12:00,74.0,61.9,30.13,NNE,18,1.0,5.0,66,0.00,,,0.00,Wunderground v.1.15,2013-07-12 14:12:00,
2013-07-12 10:18:00,74.0,62.3,30.13,ESE,108,2.0,5.0,67,0.00,,,0.00,Wunderground v.1.15,2013-07-12 14:18:00,
2013-07-12 10:24:00,74.5,61.5,30.13,North,359,2.0,5.0,64,0.00,,,0.00,Wunderground v.1.15,2013-07-12 14:24:00,
2013-07-12 10:30:00,74.8,62.7,30.13,WNW,298,2.0,5.0,66,0.00,,,0.00,Wunderground v.1.15,2013-07-12 14:30:00,
2013-07-12 10:36:00,74.7,61.3,30.13,NNE,18,2.0,5.0,63,0.00,,,0.00,Wunderground v.1.15,2013-07-12 14:36:00,
2013-07-12 10:42:00,74.0,59.7,30.12,NE,37,3.0,5.0,61,0.00,,,0.00,Wunderground v.1.15,2013-07-12 14:42:00,
2013-07-12 10:48:00,73.9,60.5,30.13,NE,48,4.0,7.0,63,0.00,,,0.00,Wunderground v.1.15,2013-07-12 14:48:00,
2013-07-12 10:54:00,73.9,60.5,30.13,NNW,347,4.0,6.0,63,0.00,,,0.00,Wunderground v.1.15,2013-07-12 14:54:00,
2013-07-12 10:59:00,73.8,60.0,30.12,North,355,3.0,6.0,62,0.00,,,0.00,Wunderground v.1.15,2013-07-12 14:59:00,
2013-07-12 11:05:00,75.0,62.0,30.12,NE,43,3.0,5.0,64,0.00,,,0.00,Wunderground v.1.15,2013-07-12 15:05:00,
2013-07-12 11:11:00,74.6,59.3,30.12,NE,50,4.0,8.0,59,0.00,,,0.00,Wunderground v.1.15,2013-07-12 15:11:00,
2013-07-12 11:17:00,74.5,59.2,30.12,NE,41,6.0,8.0,59,0.00,,,0.00,Wunderground v.1.15,2013-07-12 15:17:00,
2013-07-12 11:23:00,74.2,58.5,30.12,North,9,6.0,6.0,58,0.00,,,0.00,Wunderground v.1.15,2013-07-12 15:23:00,
2013-07-12 11:29:00,73.9,58.2,30.12,NNE,18,7.0,10.0,58,0.00,,,0.00,Wunderground v.1.15,2013-07-12 15:29:00,
2013-07-12 11:34:00,74.1,59.8,30.12,NNE,26,7.0,8.0,61,0.00,,,0.00,Wunderground v.1.15,2013-07-12 15:34:00,
2013-07-12 11:40:00,74.1,59.3,30.12,NNE,27,8.0,13.0,60,0.00,,,0.00,Wunderground v.1.15,2013-07-12 15:40:00,
2013-07-12 11:46:00,74.2,58.0,30.12,NNE,23,9.0,11.0,57,0.00,,,0.00,Wunderground v.1.15,2013-07-12 15:46:00,
2013-07-12 11:52:00,74.0,58.8,30.12,North,349,9.0,10.0,59,0.00,,,0.00,Wunderground v.1.15,2013-07-12 15:52:00,
2013-07-12 11:58:00,74.1,58.4,30.13,NNE,27,10.0,16.0,58,0.00,,,0.00,Wunderground v.1.15,2013-07-12 15:58:00,
2013-07-12 12:04:00,74.3,58.1,30.12,North,356,10.0,10.0,57,0.00,,,0.00,Wunderground v.1.15,2013-07-12 16:04:00,
2013-07-12 12:09:00,74.8,60.4,30.12,NE,47,7.0,10.0,61,0.00,,,0.00,Wunderground v.1.15,2013-07-12 16:09:00,
2013-07-12 12:15:00,75.0,60.2,30.12,NNE,30,6.0,10.0,60,0.00,,,0.00,Wunderground v.1.15,2013-07-12 16:15:00,
2013-07-12 12:21:00,74.6,61.2,30.12,NNE,30,7.0,7.0,63,0.00,,,0.00,Wunderground v.1.15,2013-07-12 16:21:00,
2013-07-12 12:27:00,74.8,60.0,30.12,NE,38,8.0,11.0,60,0.00,,,0.00,Wunderground v.1.15,2013-07-12 16:27:00,
2013-07-12 12:32:00,75.4,60.1,30.12,NNE,18,7.0,8.0,59,0.00,,,0.00,Wunderground v.1.15,2013-07-12 16:32:00,
2013-07-12 12:38:00,75.5,59.2,30.12,NE,34,6.0,10.0,57,0.00,,,0.00,Wunderground v.1.15,2013-07-12 16:38:00,
2013-07-12 12:44:00,75.6,60.3,30.12,North,1,6.0,7.0,59,0.00,,,0.00,Wunderground v.1.15,2013-07-12 16:44:00,
2013-07-12 12:50:00,75.1,60.7,30.12,NNE,21,6.0,9.0,61,0.00,,,0.00,Wunderground v.1.15,2013-07-12 16:50:00,
2013-07-12 12:55:00,74.8,59.5,30.12,NNE,22,7.0,9.0,59,0.00,,,0.00,Wunderground v.1.15,2013-07-12 16:55:00,
2013-07-12 13:01:00,75.1,61.6,30.12,North,354,7.0,7.0,63,0.00,,,0.00,Wunderground v.1.15,2013-07-12 17:01:00,
2013-07-12 13:07:00,76.2,60.8,30.12,NNE,15,4.0,7.0,59,0.00,,,0.00,Wunderground v.1.15,2013-07-12 17:07:00,
2013-07-12 13:13:00,75.7,59.4,30.12,NE,44,5.0,9.0,57,0.00,,,0.00,Wunderground v.1.15,2013-07-12 17:13:00,
2013-07-12 13:18:00,75.1,60.3,30.12,NNW,337,7.0,11.0,60,0.00,,,0.00,Wunderground v.1.15,2013-07-12 17:18:00,
2013-07-12 13:24:00,75.3,59.5,30.12,North,8,8.0,11.0,58,0.00,,,0.00,Wunderground v.1.15,2013-07-12 17:24:00,
2013-07-12 13:30:00,75.7,59.9,30.11,North,352,7.0,11.0,58,0.00,,,0.00,Wunderground v.1.15,2013-07-12 17:30:00,
2013-07-12 13:40:00,76.2,61.3,30.11,NNE,14,6.0,11.0,60,0.00,,,0.00,Wunderground v.1.15,2013-07-12 17:40:00,
2013-07-12 13:46:00,75.9,60.1,30.11,NE,49,7.0,11.0,58,0.00,,,0.00,Wunderground v.1.15,2013-07-12 17:46:00,
2013-07-12 13:52:00,75.9,61.5,30.11,East,86,6.0,6.0,61,0.00,,,0.00,Wunderground v.1.15,2013-07-12 17:52:00,
2013-07-12 13:57:00,76.3,60.4,30.11,North,11,5.0,11.0,58,0.00,,,0.00,Wunderground v.1.15,2013-07-12 17:57:00,
2013-07-12 14:03:00,76.1,59.8,30.11,NNE,30,8.0,9.0,57,0.00,,,0.00,Wunderground v.1.15,2013-07-12 18:03:00,
2013-07-12 14:09:00,76.5,60.1,30.11,NNW,344,6.0,9.0,57,0.00,,,0.00,Wunderground v.1.15,2013-07-12 18:09:00,
2013-07-12 14:15:00,76.8,59.9,30.11,NNE,25,6.0,12.0,56,0.00,,,0.00,Wunderground v.1.15,2013-07-12 18:15:00,
2013-07-12 14:20:00,76.6,60.2,30.11,NNE,20,6.0,12.0,57,0.00,,,0.00,Wunderground v.1.15,2013-07-12 18:20:00,
2013-07-12 14:26:00,76.4,62.0,30.11,North,355,4.0,6.0,61,0.00,,,0.00,Wunderground v.1.15,2013-07-12 18:26:00,
2013-07-12 14:31:00,76.7,60.8,30.12,SE,129,3.0,3.0,58,0.00,,,0.00,Wunderground v.1.15,2013-07-12 18:31:00,
2013-07-12 14:37:00,76.3,60.9,30.12,NNE,27,3.0,6.0,59,0.00,,,0.00,Wunderground v.1.15,2013-07-12 18:37:00,
2013-07-12 14:43:00,76.1,59.3,30.11,NNE,27,4.0,7.0,56,0.00,,,0.00,Wunderground v.1.15,2013-07-12 18:43:00,
2013-07-12 14:49:00,76.5,61.1,30.11,SE,135,4.0,7.0,59,0.00,,,0.00,Wunderground v.1.15,2013-07-12 18:49:00,
2013-07-12 14:55:00,77.3,60.4,30.11,NE,56,4.0,8.0,56,0.00,,,0.00,Wunderground v.1.15,2013-07-12 18:55:00,
2013-07-12 15:01:00,77.4,61.9,30.11,NW,315,5.0,5.0,59,0.00,,,0.00,Wunderground v.1.15,2013-07-12 19:01:00,
2013-07-12 15:07:00,78.3,61.3,30.11,ESE,117,3.0,5.0,56,0.00,,,0.00,Wunderground v.1.15,2013-07-12 19:07:00,
2013-07-12 15:13:00,79.3,61.7,30.11,NE,45,3.0,6.0,55,0.00,,,0.00,Wunderground v.1.15,2013-07-12 19:13:00,
2013-07-12 15:19:00,78.4,62.4,30.10,WSW,253,4.0,6.0,58,0.00,,,0.00,Wunderground v.1.15,2013-07-12 19:19:00,
2013-07-12 15:25:00,77.5,61.1,30.10,NE,37,5.0,8.0,57,0.00,,,0.00,Wunderground v.1.15,2013-07-12 19:25:00,
2013-07-12 15:30:00,77.3,62.8,30.10,North,352,7.0,13.0,61,0.00,,,0.00,Wunderground v.1.15,2013-07-12 19:30:00,
2013-07-12 15:36:00,77.1,62.1,30.10,NNW,332,8.0,11.0,60,0.00,,,0.00,Wunderground v.1.15,2013-07-12 19:36:00,
2013-07-12 15:42:00,77.4,61.5,30.10,NNE,33,7.0,7.0,58,0.00,,,0.00,Wunderground v.1.15,2013-07-12 19:42:00,
2013-07-12 15:48:00,77.2,61.8,30.10,NE,45,5.0,7.0,59,0.00,,,0.00,Wunderground v.1.15,2013-07-12 19:48:00,
2013-07-12 15:55:00,77.4,62.9,30.10,NNW,347,5.0,6.0,61,0.00,,,0.00,Wunderground v.1.15,2013-07-12 19:55:00,
2013-07-12 16:01:00,77.5,62.0,30.10,North,1,6.0,9.0,59,0.00,,,0.00,Wunderground v.1.15,2013-07-12 20:01:00,
2013-07-12 16:07:00,77.5,62.5,30.10,NNE,18,6.0,9.0,60,0.00,,,0.00,Wunderground v.1.15,2013-07-12 20:07:00,
2013-07-12 16:13:00,78.0,62.0,30.10,NE,34,6.0,6.0,58,0.00,,,0.00,Wunderground v.1.15,2013-07-12 20:13:00,
2013-07-12 16:19:00,77.8,60.8,30.10,North,354,6.0,12.0,56,0.00,,,0.00,Wunderground v.1.15,2013-07-12 20:19:00,
2013-07-12 16:25:00,77.7,59.2,30.10,NNE,23,8.0,12.0,53,0.00,,,0.00,Wunderground v.1.15,2013-07-12 20:25:00,
2013-07-12 16:31:00,77.6,58.6,30.10,NNE,27,9.0,9.0,52,0.00,,,0.00,Wunderground v.1.15,2013-07-12 20:31:00,
2013-07-12 16:38:00,78.0,58.9,30.10,NE,48,6.0,9.0,52,0.00,,,0.00,Wunderground v.1.15,2013-07-12 20:38:00,
2013-07-12 16:44:00,78.3,60.8,30.10,NE,51,5.0,6.0,55,0.00,,,0.00,Wunderground v.1.15,2013-07-12 20:44:00,
2013-07-12 16:50:00,78.2,60.7,30.10,NNE,15,5.0,10.0,55,0.00,,,0.00,Wunderground v.1.15,2013-07-12 20:50:00,
2013-07-12 16:55:00,78.3,60.8,30.10,NE,46,6.0,7.0,55,0.00,,,0.00,Wunderground v.1.15,2013-07-12 20:55:00,
2013-07-12 17:02:00,78.2,59.7,30.09,NNE,30,5.0,9.0,53,0.00,,,0.00,Wunderground v.1.15,2013-07-12 21:02:00,
2013-07-12 17:07:00,77.8,59.8,30.09,NNE,15,5.0,9.0,54,0.00,,,0.00,Wunderground v.1.15,2013-07-12 21:07:00,
2013-07-12 17:13:00,78.1,60.1,30.09,NE,39,5.0,7.0,54,0.00,,,0.00,Wunderground v.1.15,2013-07-12 21:13:00,
2013-07-12 17:20:00,78.1,59.0,30.09,ESE,106,5.0,11.0,52,0.00,,,0.00,Wunderground v.1.15,2013-07-12 21:20:00,
2013-07-12 17:26:00,78.8,59.7,30.09,NE,49,4.0,5.0,52,0.00,,,0.00,Wunderground v.1.15,2013-07-12 21:26:00,
2013-07-12 17:32:00,79.0,59.9,30.09,NE,37,3.0,6.0,52,0.00,,,0.00,Wunderground v.1.15,2013-07-12 21:32:00,
2013-07-12 17:37:00,79.1,60.0,30.09,SSE,158,4.0,6.0,52,0.00,,,0.00,Wunderground v.1.15,2013-07-12 21:37:00,
2013-07-12 17:43:00,79.4,59.1,30.09,NW,326,3.0,5.0,50,0.00,,,0.00,Wunderground v.1.15,2013-07-12 21:43:00,
2013-07-12 17:50:00,78.5,59.4,30.10,NNW,343,5.0,6.0,52,0.00,,,0.00,Wunderground v.1.15,2013-07-12 21:50:00,
2013-07-12 17:56:00,78.6,59.5,30.09,ESE,120,5.0,5.0,52,0.00,,,0.00,Wunderground v.1.15,2013-07-12 21:56:00,
2013-07-12 18:01:00,78.6,60.0,30.09,North,360,4.0,6.0,53,0.00,,,0.00,Wunderground v.1.15,2013-07-12 22:01:00,
2013-07-12 18:07:00,78.0,59.5,30.09,SW,221,5.0,8.0,53,0.00,,,0.00,Wunderground v.1.15,2013-07-12 22:07:00,
2013-07-12 18:14:00,78.6,58.4,30.09,ESE,108,4.0,6.0,50,0.00,,,0.00,Wunderground v.1.15,2013-07-12 22:14:00,
2013-07-12 18:20:00,78.5,60.5,30.09,NE,43,3.0,6.0,54,0.00,,,0.00,Wunderground v.1.15,2013-07-12 22:20:00,
2013-07-12 18:26:00,78.5,60.5,30.09,NE,49,3.0,5.0,54,0.00,,,0.00,Wunderground v.1.15,2013-07-12 22:26:00,
2013-07-12 18:31:00,78.8,60.7,30.09,NE,51,2.0,9.0,54,0.00,,,0.00,Wunderground v.1.15,2013-07-12 22:31:00,
2013-07-12 18:37:00,78.1,60.6,30.09,North,356,4.0,9.0,55,0.00,,,0.00,Wunderground v.1.15,2013-07-12 22:37:00,
2013-07-12 18:43:00,78.2,60.7,30.08,North,10,4.0,5.0,55,0.00,,,0.00,Wunderground v.1.15,2013-07-12 22:43:00,
2013-07-12 18:49:00,78.7,59.6,30.08,NE,39,3.0,5.0,52,0.00,,,0.00,Wunderground v.1.15,2013-07-12 22:49:00,
2013-07-12 18:55:00,78.6,60.0,30.08,NE,56,3.0,5.0,53,0.00,,,0.00,Wunderground v.1.15,2013-07-12 22:55:00,
2013-07-12 19:02:00,78.0,59.5,30.08,ENE,60,4.0,10.0,53,0.00,,,0.00,Wunderground v.1.15,2013-07-12 23:02:00,
2013-07-12 19:09:00,77.6,59.6,30.08,NNE,27,4.0,10.0,54,0.00,,,0.00,Wunderground v.1.15,2013-07-12 23:09:00,
2013-07-12 19:15:00,77.1,59.7,30.08,North,358,5.0,6.0,55,0.00,,,0.00,Wunderground v.1.15,2013-07-12 23:15:00,
2013-07-12 19:21:00,77.7,60.8,30.08,ENE,67,3.0,5.0,56,0.00,,,0.00,Wunderground v.1.15,2013-07-12 23:21:00,
2013-07-12 19:28:00,77.7,61.3,30.08,North,354,2.0,5.0,57,0.00,,,0.00,Wunderground v.1.15,2013-07-12 23:28:00,
2013-07-12 19:34:00,77.4,61.0,30.08,NE,46,3.0,5.0,57,0.00,,,0.00,Wunderground v.1.15,2013-07-12 23:34:00,
2013-07-12 19:40:00,77.3,61.4,30.08,NNW,330,2.0,5.0,58,0.00,,,0.00,Wunderground v.1.15,2013-07-12 23:40:00,
2013-07-12 19:46:00,77.5,62.5,30.08,North,5,2.0,5.0,60,0.00,,,0.00,Wunderground v.1.15,2013-07-12 23:46:00,
2013-07-12 19:53:00,77.2,61.3,30.08,NE,44,2.0,5.0,58,0.00,,,0.00,Wunderground v.1.15,2013-07-12 23:53:00,
2013-07-12 19:59:00,76.8,61.9,30.08,NNW,328,3.0,5.0,60,0.00,,,0.00,Wunderground v.1.15,2013-07-12 23:59:00,
2013-07-12 20:06:00,76.8,61.9,30.08,NNE,32,2.0,5.0,60,0.00,,,0.00,Wunderground v.1.15,2013-07-13 00:06:00,
2013-07-12 20:12:00,76.8,61.9,30.08,NE,53,1.0,5.0,60,0.00,,,0.00,Wunderground v.1.15,2013-07-13 00:12:00,
2013-07-12 20:18:00,76.7,62.2,30.08,North,354,1.0,5.0,61,0.00,,,0.00,Wunderground v.1.15,2013-07-13 00:18:00,
2013-07-12 20:24:00,76.2,62.2,30.08,North,10,2.0,5.0,62,0.00,,,0.00,Wunderground v.1.15,2013-07-13 00:24:00,
2013-07-12 20:29:00,76.1,63.9,30.08,NNE,15,2.0,5.0,66,0.00,,,0.00,Wunderground v.1.15,2013-07-13 00:29:00,
2013-07-12 20:35:00,75.7,63.1,30.08,North,10,1.0,5.0,65,0.00,,,0.00,Wunderground v.1.15,2013-07-13 00:35:00,
2013-07-12 20:41:00,75.1,63.4,30.08,NNE,12,1.0,1.0,67,0.00,,,0.00,Wunderground v.1.15,2013-07-13 00:41:00,
2013-07-12 20:48:00,73.9,63.9,30.08,North,11,0.0,5.0,71,0.00,,,0.00,Wunderground v.1.15,2013-07-13 00:48:00,
2013-07-12 20:54:00,72.9,63.7,30.08,NNE,12,0.0,5.0,73,0.00,,,0.00,Wunderground v.1.15,2013-07-13 00:54:00,
2013-07-12 20:59:00,72.5,64.1,30.08,NNE,12,0.0,5.0,75,0.00,,,0.00,Wunderground v.1.15,2013-07-13 00:59:00,
2013-07-12 21:05:00,71.7,64.1,30.08,North,11,0.0,5.0,77,0.00,,,0.00,Wunderground v.1.15,2013-07-13 01:05:00,
2013-07-12 21:11:00,70.9,63.7,30.09,North,11,0.0,5.0,78,0.00,,,0.00,Wunderground v.1.15,2013-07-13 01:11:00,
2013-07-12 21:17:00,70.6,62.7,30.09,NNE,21,1.0,5.0,76,0.00,,,0.00,Wunderground v.1.15,2013-07-13 01:17:00,
2013-07-12 21:23:00,70.8,63.2,30.09,NNE,26,1.0,5.0,77,0.00,,,0.00,Wunderground v.1.15,2013-07-13 01:23:00,
2013-07-12 21:29:00,70.7,62.8,30.09,NNE,26,1.0,5.0,76,0.00,,,0.00,Wunderground v.1.15,2013-07-13 01:29:00,
2013-07-12 21:35:00,70.3,62.7,30.09,NNE,26,1.0,5.0,77,0.00,,,0.00,Wunderground v.1.15,2013-07-13 01:35:00,
2013-07-12 21:41:00,69.5,62.7,30.09,NNE,26,0.0,5.0,79,0.00,,,0.00,Wunderground v.1.15,2013-07-13 01:41:00,
2013-07-12 21:46:00,68.8,63.1,30.09,NNE,26,0.0,5.0,82,0.00,,,0.00,Wunderground v.1.15,2013-07-13 01:46:00,
2013-07-12 21:52:00,68.0,61.6,30.09,NNE,26,1.0,5.0,80,0.00,,,0.00,Wunderground v.1.15,2013-07-13 01:52:00,
2013-07-12 21:58:00,67.7,62.3,30.09,NNE,26,0.0,5.0,83,0.00,,,0.00,Wunderground v.1.15,2013-07-13 01:58:00,
2013-07-12 22:04:00,67.3,62.3,30.09,NNE,26,0.0,5.0,84,0.00,,,0.00,Wunderground v.1.15,2013-07-13 02:04:00,
2013-07-12 22:10:00,67.1,62.4,30.09,NNE,26,0.0,5.0,85,0.00,,,0.00,Wunderground v.1.15,2013-07-13 02:10:00,
2013-07-12 22:16:00,67.1,62.4,30.09,NNE,26,0.0,5.0,85,0.00,,,0.00,Wunderground v.1.15,2013-07-13 02:16:00,
2013-07-12 22:22:00,67.4,62.1,30.09,NE,41,0.0,5.0,83,0.00,,,0.00,Wunderground v.1.15,2013-07-13 02:22:00,
2013-07-12 22:27:00,67.8,62.1,30.09,NE,48,1.0,5.0,82,0.00,,,0.00,Wunderground v.1.15,2013-07-13 02:27:00,
2013-07-12 22:36:00,68.4,62.0,30.10,North,356,2.0,5.0,80,0.00,,,0.00,Wunderground v.1.15,2013-07-13 02:36:00,
2013-07-12 22:42:00,68.4,61.6,30.10,NE,48,1.0,5.0,79,0.00,,,0.00,Wunderground v.1.15,2013-07-13 02:42:00,
2013-07-12 22:47:00,68.4,61.6,30.10,NE,46,1.0,5.0,79,0.00,,,0.00,Wunderground v.1.15,2013-07-13 02:47:00,
2013-07-12 22:53:00,68.4,61.6,30.10,NE,44,2.0,5.0,79,0.00,,,0.00,Wunderground v.1.15,2013-07-13 02:53:00,
2013-07-12 22:59:00,68.3,61.5,30.10,NNE,30,2.0,5.0,79,0.00,,,0.00,Wunderground v.1.15,2013-07-13 02:59:00,
2013-07-12 23:06:00,68.3,61.5,30.09,NE,49,2.0,5.0,79,0.00,,,0.00,Wunderground v.1.15,2013-07-13 03:06:00,
2013-07-12 23:12:00,68.1,61.3,30.09,NNE,14,2.0,5.0,79,0.00,,,0.00,Wunderground v.1.15,2013-07-13 03:12:00,
2013-07-12 23:18:00,67.8,61.4,30.10,NNE,18,2.0,5.0,80,0.00,,,0.00,Wunderground v.1.15,2013-07-13 03:18:00,
2013-07-12 23:24:00,67.5,61.1,30.10,NE,41,2.0,5.0,80,0.00,,,0.00,Wunderground v.1.15,2013-07-13 03:24:00,
2013-07-12 23:30:00,67.3,61.3,30.10,NNE,18,1.0,5.0,81,0.00,,,0.00,Wunderground v.1.15,2013-07-13 03:30:00,
2013-07-12 23:36:00,67.1,61.1,30.10,NNW,335,1.0,5.0,81,0.00,,,0.00,Wunderground v.1.15,2013-07-13 03:36:00,
2013-07-12 23:42:00,66.6,60.6,30.10,North,6,1.0,5.0,81,0.00,,,0.00,Wunderground v.1.15,2013-07-13 03:42:00,
2013-07-12 23:48:00,66.2,60.9,30.10,North,360,2.0,5.0,83,0.00,,,0.00,Wunderground v.1.15,2013-07-13 03:48:00,
2013-07-12 23:53:00,65.6,60.6,30.11,NNW,345,2.0,5.0,84,0.00,,,0.00,Wunderground v.1.15,2013-07-13 03:53:00,
2013-07-12 23:59:00,65.2,60.9,30.11,NNW,340,2.0,5.0,86,0.00,,,0.00,Wunderground v.1.15,2013-07-13 03:59:00,